When you browse on this site, cookies collect data to enhance your experience and personalize the content and advertising you see.
Visit our Privacy Policy to learn more. By continuing to use the site, you agree to this use of cookies and data.
  • In Latvia
  • List of Countries
  • For 7 days
  • Water Temperature
  • Satellite Maps
  • Weather Map
  • Weather Widgets
  • user-avatar
    Login

    Hourly Weather San Juan

    Today, 23 May, Thursday

    Time Temperature Precipitation Wind Pressure Humidity
    00:00 +7°C° 0 mm 5 mps 711 mmHg 29%
    01:00 +7°C° 0 mm 5 mps 710 mmHg 27%
    02:00 +7°C° 0 mm 5 mps 710 mmHg 26%
    03:00 +7°C° 0 mm 5 mps 710 mmHg 26%
    04:00 +7°C° 0 mm 5 mps 710 mmHg 25%
    05:00 +7°C° 0 mm 5 mps 710 mmHg 23%
    06:00 +7°C° 0 mm 5 mps 710 mmHg 21%
    07:00 +7°C° 0 mm 5 mps 710 mmHg 20%
    08:00 +10°C° 0 mm 5 mps 710 mmHg 16%
    09:00 +14°C° 0 mm 5 mps 711 mmHg 13%
    10:00 +16°C° 0 mm 6 mps 711 mmHg 10%
    11:00 +19°C° 0 mm 6 mps 710 mmHg 9%
    12:00 +20°C° 0 mm 6 mps 710 mmHg 7%
    13:00 +21°C° 0 mm 5 mps 709 mmHg 6%
    14:00 +21°C° 0 mm 5 mps 709 mmHg 6%
    15:00 +20°C° 0 mm 5 mps 709 mmHg 7%
    16:00 +20°C° 0 mm 4 mps 708 mmHg 7%
    17:00 +18°C° 0 mm 4 mps 708 mmHg 8%
    18:00 +17°C° 0 mm 3 mps 708 mmHg 8%
    19:00 +14°C° 0 mm 3 mps 708 mmHg 9%
    20:00 +14°C° 0 mm 3 mps 708 mmHg 9%
    21:00 +14°C° 0 mm 3 mps 708 mmHg 9%
    22:00 +13°C° 0 mm 3 mps 708 mmHg 8%
    23:00 +13°C° 0 mm 3 mps 708 mmHg 8%

    Tomorrow, 24 May, Friday

    Time Temperature Precipitation Wind Pressure Humidity
    00:00 +13°C° 0 mm 3 mps 708 mmHg 8%
    01:00 +13°C° 0 mm 3 mps 707 mmHg 8%
    02:00 +13°C° 0 mm 3 mps 707 mmHg 8%
    03:00 +13°C° 0 mm 3 mps 707 mmHg 8%
    04:00 +12°C° 0 mm 3 mps 706 mmHg 7%
    05:00 +14°C° 0 mm 2 mps 706 mmHg 7%
    06:00 +14°C° 0 mm 2 mps 706 mmHg 7%
    07:00 +14°C° 0 mm 2 mps 706 mmHg 7%
    08:00 +17°C° 0 mm 2 mps 706 mmHg 6%
    09:00 +19°C° 0 mm 2 mps 706 mmHg 5%
    10:00 +23°C° 0 mm 2 mps 706 mmHg 4%
    11:00 +24°C° 0 mm 2 mps 706 mmHg 3%
    12:00 +24°C° 0 mm 2 mps 705 mmHg 3%
    13:00 +25°C° 0 mm 2 mps 704 mmHg 3%
    14:00 +24°C° 0 mm 2 mps 704 mmHg 4%
    15:00 +23°C° 0 mm 1 mps 703 mmHg 5%
    16:00 +22°C° 0 mm 1 mps 703 mmHg 6%
    17:00 +18°C° 0 mm 0 mps 703 mmHg 6%
    18:00 +16°C° 0 mm 0 mps 703 mmHg 7%
    19:00 +14°C° 0 mm 0 mps 703 mmHg 8%
    20:00 +15°C° 0 mm 1 mps 703 mmHg 8%
    21:00 +15°C° 0 mm 1 mps 703 mmHg 7%
    22:00 +15°C° 0 mm 2 mps 703 mmHg 7%
    23:00 +16°C° 0 mm 2 mps 703 mmHg 8%

    Day after tomorrow, 25 May, Saturday

    Time Temperature Precipitation Wind Pressure Humidity
    00:00 +16°C° 0 mm 2 mps 703 mmHg 9%
    01:00 +16°C° 0 mm 2 mps 703 mmHg 9%
    02:00 +15°C° 0 mm 2 mps 702 mmHg 11%
    03:00 +14°C° 0 mm 2 mps 702 mmHg 12%
    04:00 +14°C° 0 mm 1 mps 701 mmHg 13%
    05:00 +14°C° 0 mm 1 mps 701 mmHg 14%
    06:00 +14°C° 0 mm 1 mps 701 mmHg 14%
    07:00 +14°C° 0 mm 1 mps 702 mmHg 15%
    08:00 +16°C° 0 mm 1 mps 702 mmHg 12%
    09:00 +20°C° 0 mm 1 mps 702 mmHg 10%
    10:00 +23°C° 0 mm 1 mps 702 mmHg 8%
    11:00 +23°C° 0 mm 1 mps 702 mmHg 7%
    12:00 +24°C° 0 mm 2 mps 701 mmHg 6%
    13:00 +25°C° 0 mm 2 mps 701 mmHg 5%
    14:00 +24°C° 0 mm 2 mps 701 mmHg 6%
    15:00 +24°C° 0 mm 2 mps 701 mmHg 7%
    16:00 +23°C° 0 mm 1 mps 701 mmHg 7%
    17:00 +22°C° 0 mm 1 mps 701 mmHg 10%
    18:00 +20°C° 0 mm 1 mps 701 mmHg 12%
    19:00 +19°C° 0 mm 1 mps 702 mmHg 14%
    20:00 +19°C° 0 mm 1 mps 702 mmHg 13%
    21:00 +18°C° 0 mm 1 mps 702 mmHg 13%
    22:00 +18°C° 0 mm 1 mps 702 mmHg 13%
    23:00 +16°C° 0 mm 1 mps 702 mmHg 11%

    26 May, Sunday

    Time Temperature Precipitation Wind Pressure Humidity
    00:00 +16°C° 0 mm 1 mps 702 mmHg 10%
    01:00 +16°C° 0 mm 1 mps 702 mmHg 9%
    02:00 +15°C° 0 mm 1 mps 702 mmHg 11%
    03:00 +14°C° 0 mm 1 mps 702 mmHg 13%
    04:00 +13°C° 0 mm 1 mps 702 mmHg 16%
    05:00 +13°C° 0 mm 2 mps 702 mmHg 23%
    06:00 +13°C° 0 mm 2 mps 703 mmHg 30%
    07:00 +12°C° 0 mm 3 mps 703 mmHg 37%
    08:00 +13°C° 0 mm 3 mps 703 mmHg 38%
    09:00 +14°C° 0 mm 3 mps 703 mmHg 38%
    10:00 +17°C° 0 mm 4 mps 704 mmHg 39%
    11:00 +18°C° 0 mm 4 mps 703 mmHg 37%
    12:00 +17°C° 0 mm 5 mps 703 mmHg 34%
    13:00 +19°C° 0 mm 5 mps 702 mmHg 32%
    14:00 +19°C° 0 mm 5 mps 702 mmHg 29%
    15:00 +17°C° 0 mm 5 mps 702 mmHg 27%
    16:00 +18°C° 0 mm 4 mps 702 mmHg 24%
    17:00 +17°C° 0 mm 4 mps 703 mmHg 24%
    18:00 +16°C° 0 mm 3 mps 703 mmHg 25%
    19:00 +14°C° 0 mm 3 mps 703 mmHg 25%
    20:00 +14°C° 0 mm 2 mps 703 mmHg 27%
    21:00 +14°C° 0 mm 2 mps 703 mmHg 29%
    22:00 +13°C° 0 mm 1 mps 703 mmHg 30%
    23:00 +13°C° 0 mm 1 mps 703 mmHg 33%

    27 May, Monday

    Time Temperature Precipitation Wind Pressure Humidity
    00:00 +12°C° 0 mm 1 mps 703 mmHg 36%
    01:00 +11°C° 0 mm 1 mps 703 mmHg 39%
    02:00 +11°C° 0 mm 1 mps 703 mmHg 40%
    03:00 +10°C° 0 mm 1 mps 702 mmHg 41%
    04:00 +10°C° 0 mm 1 mps 702 mmHg 42%
    05:00 +10°C° 0 mm 1 mps 702 mmHg 41%
    06:00 +10°C° 0 mm 1 mps 703 mmHg 41%
    07:00 +9°C° 0 mm 0 mps 703 mmHg 40%
    08:00 +13°C° 0 mm 1 mps 703 mmHg 34%
    09:00 +15°C° 0 mm 1 mps 703 mmHg 29%
    10:00 +19°C° 0 mm 1 mps 703 mmHg 24%
    11:00 +18°C° 0 mm 2 mps 703 mmHg 22%
    12:00 +19°C° 0 mm 2 mps 702 mmHg 20%
    13:00 +20°C° 0 mm 3 mps 702 mmHg 18%
    14:00 +20°C° 0 mm 2 mps 702 mmHg 18%
    15:00 +19°C° 0 mm 2 mps 702 mmHg 19%
    16:00 +19°C° 0 mm 2 mps 702 mmHg 20%
    17:00 +17°C° 0 mm 2 mps 702 mmHg 24%
    18:00 +15°C° 0 mm 2 mps 703 mmHg 29%
    19:00 +14°C° 0 mm 1 mps 703 mmHg 34%
    20:00 +13°C° 0 mm 1 mps 703 mmHg 36%
    21:00 +12°C° 0 mm 1 mps 703 mmHg 38%
    22:00 +12°C° 0 mm 1 mps 704 mmHg 40%
    23:00 +12°C° 0 mm 1 mps 703 mmHg 37%

    28 May, Tuesday

    Time Temperature Precipitation Wind Pressure Humidity
    00:00 +12°C° 0 mm 1 mps 703 mmHg 34%
    01:00 +12°C° 0 mm 1 mps 703 mmHg 31%
    02:00 +12°C° 0 mm 1 mps 703 mmHg 30%
    03:00 +12°C° 0 mm 2 mps 703 mmHg 28%
    04:00 +12°C° 0 mm 2 mps 703 mmHg 27%
    05:00 +12°C° 0 mm 2 mps 703 mmHg 27%
    06:00 +12°C° 0 mm 2 mps 703 mmHg 27%
    07:00 +12°C° 0 mm 2 mps 704 mmHg 26%
    08:00 +13°C° 0 mm 3 mps 704 mmHg 22%
    09:00 +17°C° 0 mm 4 mps 704 mmHg 18%
    10:00 +19°C° 0 mm 4 mps 704 mmHg 14%
    11:00 +20°C° 0 mm 4 mps 704 mmHg 13%
    12:00 +21°C° 0 mm 4 mps 703 mmHg 12%
    13:00 +22°C° 0 mm 4 mps 702 mmHg 11%
    14:00 +21°C° 0 mm 4 mps 702 mmHg 12%
    15:00 +21°C° 0 mm 3 mps 702 mmHg 13%
    16:00 +20°C° 0 mm 3 mps 702 mmHg 13%
    17:00 +19°C° 0 mm 2 mps 702 mmHg 19%
    18:00 +17°C° 0 mm 2 mps 703 mmHg 24%
    19:00 +16°C° 0 mm 1 mps 703 mmHg 29%
    20:00 +15°C° 0 mm 1 mps 703 mmHg 27%
    21:00 +15°C° 0 mm 1 mps 702 mmHg 25%
    22:00 +14°C° 0 mm 1 mps 702 mmHg 23%
    23:00 +14°C° 0 mm 1 mps 702 mmHg 23%
    Show more